Regional Weather Roundup
Issued by NWS

Home | Current Version | Previous Version | Graphics & Text | Print | Product List | Glossary Off
Versions: 1 2 3 4 5 6 7 8 9 10 11 12 13 14 15 16 17 18 19 20 21 22 23 24 25 26 27 28 29 30 31 32 33 34 35 36 37 38 39 40 41 42 43 44 45 46 47 48 49 50

000
ASUS43 KDMX 251803
RWRIA

WEATHER ROUNDUP FOR IOWA
NATIONAL WEATHER SERVICE DES MOINES IA
100 PM CDT SUN SEP 25 2016

NOTE: "FAIR" INDICATES FEW OR NO CLOUDS BELOW 12,000 FEET WITH NO
SIGNIFICANT WEATHER AND/OR OBSTRUCTIONS TO VISIBILITY.

* - THESE STATIONS ARE NOT NWS STATIONS...THUS NOT UNDER NWS
QUALITY CONTROL.  THEY ALSO DO NOT REPORT WEATHER SUCH
AS PRECIPITATION OR FOG.

IAZ001>003-012>014-020>022-031>034-043>046-251900-
   NORTHWEST IOWA

CITY           SKY/WX    TMP DP  RH WIND       PRES   REMARKS
CARROLL *      PTSUNNY   66  50  55 W18       30.08S
CHEROKEE *     CLOUDY    61  50  66 W18G25    30.08S
DENISON *      CLOUDY    64  50  59 NW15G26   30.09R
LE MARS *      CLOUDY    61  48  63 W18G29    30.11R
ORANGE CITY *  CLOUDY    61  52  72 W23G30    30.08R
SHELDON *      CLOUDY    61  50  67 W16G26    30.04S
SIOUX CITY     CLOUDY    64  49  57 NW23G30   30.10R
6HR MIN TEMP:  54; 6HR MAX TEMP:  66; 6HR PCP: TRACE;

SPENCER        CLOUDY    63  50  62 W22G32    30.04R
6HR MIN TEMP:  54; 6HR MAX TEMP:  64;

STORM LAKE *   MOSUNNY   61  48  63 W20G26    30.07S
$$

IAZ055>058-069>071-079>083-090>094-251900-
   SOUTHWEST IOWA

CITY           SKY/WX    TMP DP  RH WIND       PRES   REMARKS
ATLANTIC *     PTSUNNY   64  52  63 W14G21    30.11F
AUDUBON *      PTSUNNY   64  54  68 NW13G22   30.10F
CLARINDA *       N/A     66  50  55 MISG      30.15S
COUNCIL BLFS * CLOUDY    68  50  52 NW10G21   30.12F
CRESTON *      PTSUNNY   64  52  63 NW13G20   30.12S
HARLAN  *      CLOUDY    66  52  59 NW20      30.13F
LAMONI         CLOUDY    64  54  69 NW13      30.10F
6HR MIN TEMP:  63; 6HR MAX TEMP:  69; 6HR PCP: TRACE;

RED OAK *      CLOUDY    64  52  63 NW12      30.13F
$$

IAZ047>049-059>061-072>074-084-251900-
   CENTRAL IOWA

CITY           SKY/WX    TMP DP  RH WIND       PRES   REMARKS
AMES           CLOUDY    66  54  65 NW15G24   30.06R
6HR MIN TEMP:  60; 6HR MAX TEMP:  68; 6HR PCP: TRACE;

ANKENY *         N/A    N/A N/A N/A MISG        N/A
BOONE *        PTSUNNY   64  52  63 W14G23    30.05F
CHARITON *       N/A     64  54  68 W10       30.08F
DES MOINES     PTSUNNY   68  53  58 NW14      30.06F
6HR MIN TEMP:  63; 6HR MAX TEMP:  70; 6HR PCP: TRACE;

GRINNELL*      CLOUDY    64  56  76 W10       30.05F
KNOXVILLE *    CLOUDY    64  54  68 W12       30.06S
MARSHALLTOWN   CLOUDY    68  55  63 W16G24    30.03S
6HR MIN TEMP:  64; 6HR MAX TEMP:  69; 6HR PCP: TRACE;

NEWTON *       CLOUDY    64  55  72 W12G17    30.05S
PELLA *        CLOUDY    65  55  69 W10       30.07S
PERRY *          N/A     65  53  64 W13G22    30.08S
$$

IAZ004>006-015-016-023>025-035-036-251900-
   NORTH CENTRAL IOWA

CITY           SKY/WX    TMP DP  RH WIND       PRES   REMARKS
ALGONA *       PTSUNNY   64  50  59 W24       30.02S
CLARION *      CLOUDY    64  52  63 W16G25    30.03F
ESTHERVILLE    CLOUDY    61  51  70 W21G28    30.02S
6HR MIN TEMP:  55; 6HR MAX TEMP:  63;

FORT DODGE *   PTSUNNY   64  52  63 W10G18    30.05S
MASON CITY     PTSUNNY   63  52  67 W15G28    30.02S
6HR MIN TEMP:  60; 6HR MAX TEMP:  68; 6HR PCP:  0.02;

FOREST CITY *    N/A     64  50  59 W12G21    30.00F
WEBSTER CITY * PTSUNNY   64  52  63 W13G18    30.03S
IOWA FALLS *     N/A     66  53  61 W17G23    30.04F
$$

IAZ007>011-017>019-026>030-037>042-050>054-066-251900-
   NORTHEAST IOWA

CITY           SKY/WX    TMP DP  RH WIND       PRES   REMARKS
CEDAR RAPIDS   CLOUDY    74  69  85 W13       29.99F
6HR MIN TEMP:  67; 6HR MAX TEMP:  77;

CHARLES CITY * PTSUNNY   70  54  56 W17G24    30.00R
CLINTON *      PTSUNNY   82  71  69 SW17G23   29.97F HX  86
DECORAH *      PTSUNNY   73  66  78 W10       29.95F
DUBUQUE        PTSUNNY   78  67  68 SW14      29.97F HX  80
6HR MIN TEMP:  65; 6HR MAX TEMP:  80;

MONTICELLO *   CLOUDY    79  66  65 W14       29.97F HX  81
OELWEIN *      CLOUDY    70  64  83 W15       29.99F
WATERLOO       CLOUDY    70  50  49 W13       29.99F
6HR MIN TEMP:  66; 6HR MAX TEMP:  71;

$$

IAZ064-065-067-068-078-251900-
   EAST CENTRAL IOWA

CITY           SKY/WX    TMP DP  RH WIND       PRES   REMARKS
DAVENPORT      MOSUNNY   83  66  56 SW14G20   29.98F HX  85
6HR MIN TEMP:  68; 6HR MAX TEMP:  83;

IOWA CITY      MOSUNNY   80  67  64 W16       30.00S HX  82
6HR MIN TEMP:  67; 6HR MAX TEMP:  81;

MUSCATINE *    CLOUDY    84  64  51 SW13G26   29.98F HX  86
QUAD CITIES    PTSUNNY   84  69  60 W9        29.96F HX  88
6HR MIN TEMP:  69; 6HR MAX TEMP:  85;

$$

IAZ062-063-075>077-085>089-095>099-251900-
   SOUTHEAST IOWA

CITY           SKY/WX    TMP DP  RH WIND       PRES   REMARKS
BURLINGTON     CLOUDY    81  66  60 W10       30.01S HX  83
6HR MIN TEMP:  70; 6HR MAX TEMP:  85;

FAIRFIELD *    CLOUDY    72  63  73 W13G22    30.04R
FORT MADISON *   N/A     81  66  61 W10G16    30.03S HX  83
KEOKUK *       CLOUDY    82  66  57 W16       30.02S HX  85
OSKALOOSA *    CLOUDY    67  53  60 W14       30.05F
OTTUMWA        CLOUDY    68  56  65 W10       30.05F
6HR MIN TEMP:  65; 6HR MAX TEMP:  77; 6HR PCP: TRACE;

WASHINGTON *     N/A    N/A N/A N/A MISG        N/A
$$

ABBREVIATIONS USED IN REMARKS
   TC - TEMPERATURES IN CELSIUS
  WCI - WIND CHILL INDEX
   HX - HEAT INDEX
  VSB - VISIBILITY
$$




USA.gov is the U.S. government's official web portal to all federal, state and local government web resources and services.